Location: Barrio Pajares
(40.5500°N, 4.1667°W)
Time: 16:26:51
(UTC+00:00)

SL-4 R/B - Visible Passes

Search period start: 16 July 2024 00:00
Search period end: 26 July 2024 00:00
Orbit: 411 x 597 km, 51.6° (Epoch: 16 July)

Date Brightness Start Highest point End Pass type
(mag) Time Alt. Az. Time Alt. Az. Time Alt. Az.
20 Jul 3.6 04:12:39 10° S 04:15:35 22° SE 04:18:25 10° E visible
21 Jul 3.5 03:52:22 11° S 03:55:14 23° SE 03:58:09 10° E visible
22 Jul 3.4 03:32:56 17° S 03:34:51 24° SE 03:37:51 10° ENE visible
23 Jul 3.2 03:13:26 23° SSE 03:14:26 26° SE 03:17:30 10° ENE visible
24 Jul 3.1 02:53:49 27° SE 02:53:58 27° SE 02:57:08 10° ENE visible
24 Jul 2.5 04:28:56 10° WSW 04:32:31 42° NNW 04:35:55 10° NE visible
25 Jul 3.3 02:34:07 27° ESE 02:34:07 27° ESE 02:36:44 10° ENE visible
25 Jul 2.6 04:08:49 12° W 04:12:03 41° NNW 04:15:28 10° NE visible
